FW0202 Weather Reports


Display with metric or nautical units.
time (UTC)temp
F
wind
direction
speed
MPH
gust
MPH
rain 1hr
in
rain 24hr
in
rain mn
in
humidity
%
barometer
mb
20260831234156 69 17 1.0 5.0 0.00 0.00 0.00 71 1009.4
20260831233656 69 346 2.0 5.0 0.00 0.00 0.00 69 1009.4
20260831233154 69 336 4.0 4.0 0.00 0.00 0.00 70 1009.5
20260831232625 69 43 2.0 4.0 0.00 0.00 0.00 70 1009.4
20260831232125 69 3 2.0 6.0 0.00 0.00 0.00 69 1009.5
20260831231611 68 329 2.0 6.0 0.00 0.00 0.00 72 1009.5
20260831231057 68 11 2.0 4.0 0.00 0.00 0.00 71 1009.8
20260831230551 67 318 4.0 4.0 0.00 0.00 0.00 73 1009.6
20260831230100 65 14 2.0 4.0 0.00 0.00 0.00 77 1009.7
20260831225542 65 22 2.0 5.0 0.00 0.00 0.00 79 1009.6
20260831225306 62 3 2.0 5.0 0.00 0.00 0.00 83 1009.8
20260831224528 61 355 3.0 5.0 0.00 0.00 0.00 84 1009.7
20260831224024 60 4 4.0 5.0 0.00 0.00 0.00 84 1009.8
20260831223511 61 17 2.0 5.0 0.00 0.00 0.00 86 1009.6
20260831223007 61 0 3.0 4.0 0.00 0.00 0.00 86 1009.6
20260831222502 59 30 2.0 5.0 0.00 0.00 0.00 93 1009.8
20260831222006 58 351 3.0 5.0 0.00 0.00 0.00 95 1009.6
20260831221453 59 337 3.0 5.0 0.00 0.00 0.00 96 1009.5
20260831220953 60 351 2.0 4.0 0.00 0.00 0.00 97 1009.4
20260831220453 59 353 2.0 4.0 0.00 0.00 0.00 98 1009.5
20260831215952 57 6 1.0 5.0 0.00 0.00 0.00 98 1009.1
20260831215438 56 343 2.0 5.0 0.00 0.00 0.00 98 1009.3
20260831214936 56 335 2.0 5.0 0.00 0.00 0.00 98 1009.4
20260831214432 57 333 2.0 4.0 0.00 0.00 0.00 98 1009.2
20260831214150 58 351 3.0 4.0 0.00 0.00 0.00 99 1009.1
20260831213413 57 343 1.0 4.0 0.00 0.00 0.00 99 1009.1
20260831212909 56 43 1.0 4.0 0.00 0.00 0.00 99 1009.1
20260831212355 54 345 2.0 4.0 0.00 0.00 0.00 99 1008.9
20260831211852 53 349 1.0 4.0 0.00 0.00 0.00 99 1009.0
20260831211347 53 351 2.0 3.0 0.00 0.00 0.00 99 1009.0
20260831210843 53 337 2.0 3.0 0.00 0.00 0.00 99 1009.0
20260831210338 53 353 1.0 3.0 0.00 0.00 0.00 99 1008.9
20260831210108 53 17 2.0 3.0 0.00 0.00 0.00 99 1008.8
20260831205313 53 7 2.0 3.0 0.00 0.00 0.00 99 1008.9
20260831204809 53 0 2.0 3.0 0.00 0.00 0.00 99 1008.7
20260831204304 53 2 2.0 4.0 0.00 0.00 0.00 99 1008.7
20260831203801 53 22 1.0 4.0 0.00 0.00 0.00 99 1008.5
20260831203256 53 346 2.0 4.0 0.00 0.00 0.00 99 1008.5
20260831202742 52 289 0.0 3.0 0.00 0.00 0.00 99 1008.4
20260831202237 52 5 1.0 3.0 0.00 0.00 0.00 99 1008.4
20260831201733 52 14 1.0 4.0 0.00 0.00 0.00 99 1008.4
20260831201230 51 13 2.0 4.0 0.00 0.00 0.00 99 1008.3
20260831200720 51 27 1.0 3.0 0.00 0.00 0.00 99 1008.3
20260831200220 51 2 2.0 3.0 0.00 0.00 0.00 99 1008.2
20260831195933 51 350 2.0 4.0 0.00 0.00 0.00 99 1008.2
20260831195659 51 9 3.0 4.0 0.00 0.00 0.00 99 1008.1
20260831194907 51 358 0.0 4.0 0.00 0.00 0.00 99 1008.0
20260831194142 52 354 3.0 4.0 0.00 0.00 0.00 99 1008.2
20260831193856 52 5 2.0 4.0 0.00 0.00 0.00 99 1008.1
20260831193113 52 18 2.0 4.0 0.00 0.00 0.00 99 1007.9
20260831192609 52 19 2.0 4.0 0.00 0.00 0.00 99 1008.0
20260831192312 52 33 0.0 3.0 0.00 0.00 0.00 98 1008.0
20260831191548 52 354 3.0 4.0 0.00 0.00 0.00 98 1008.0
20260831191046 52 352 3.0 4.0 0.00 0.00 0.00 98 1008.0
20260831190800 52 355 2.0 4.0 0.00 0.00 0.00 98 1007.8
20260831190013 51 2 2.0 4.0 0.00 0.00 0.00 98 1007.8
20260831185509 51 5 2.0 4.0 0.00 0.00 0.00 98 1007.7
20260831184955 51 48 1.0 4.0 0.00 0.00 0.00 98 1007.8
20260831184450 51 14 2.0 4.0 0.00 0.00 0.00 98 1007.7
20260831183946 51 15 2.0 3.0 0.00 0.00 0.00 98 1007.8
20260831183432 51 18 2.0 4.0 0.00 0.00 0.00 98 1007.7
20260831182928 51 21 2.0 4.0 0.00 0.00 0.00 98 1007.7
20260831182603 51 351 1.0 4.0 0.00 0.00 0.00 98 1007.7
20260831181404 51 340 3.0 4.0 0.00 0.00 0.00 98 1007.8
20260831180901 51 351 1.0 3.0 0.00 0.00 0.00 98 1007.8
20260831180358 51 1 2.0 3.0 0.00 0.00 0.00 98 1007.8
20260831175854 51 0 1.0 3.0 0.00 0.00 0.00 98 1007.6
20260831175346 51 20 1.0 3.0 0.00 0.00 0.00 98 1007.5
20260831174846 51 27 1.0 3.0 0.00 0.00 0.00 98 1007.7
20260831174610 51 17 0.0 4.0 0.00 0.00 0.00 98 1007.5
20260831173816 51 42 0.0 4.0 0.00 0.00 0.00 98 1007.5
20260831173312 51 349 3.0 4.0 0.00 0.00 0.00 98 1007.4
20260831173027 51 32 1.0 3.0 0.00 0.00 0.00 98 1007.6
20260831172244 51 5 2.0 3.0 0.00 0.00 0.00 98 1007.6
20260831171740 51 4 2.0 4.0 0.00 0.00 0.00 98 1007.4
20260831171228 51 350 2.0 4.0 0.00 0.00 0.00 98 1007.8
20260831170711 51 358 3.0 4.0 0.00 0.00 0.00 98 1007.7
20260831170158 51 188 1.0 3.0 0.00 0.00 0.00 98 1007.7
20260831165652 50 1 2.0 4.0 0.00 0.00 0.00 98 1007.9
20260831165149 50 15 1.0 4.0 0.00 0.00 0.00 98 1007.9
20260831164644 51 358 3.0 4.0 0.00 0.00 0.00 98 1007.8
20260831164144 51 1 3.0 4.0 0.00 0.00 0.00 98 1007.7
20260831163644 52 0 2.0 4.0 0.00 0.00 0.00 98 1007.9
20260831163344 51 15 2.0 4.0 0.00 0.00 0.00 98 1007.8
20260831162614 51 11 2.0 4.0 0.00 0.00 0.00 98 1007.8
20260831162115 52 11 2.0 4.0 0.00 0.00 0.00 98 1008.0
20260831161600 52 4 2.0 4.0 0.00 0.00 0.00 98 1008.2
20260831161045 52 22 2.0 4.0 0.00 0.00 0.00 98 1008.0
20260831160541 51 353 2.0 4.0 0.00 0.00 0.00 98 1008.0
20260831160038 52 357 2.0 4.0 0.00 0.00 0.00 98 1008.2
20260831155513 51 339 1.0 4.0 0.00 0.00 0.00 98 1008.3
20260831155211 52 359 2.0 4.0 0.00 0.00 0.00 98 1008.4
20260831154009 52 353 3.0 4.0 0.00 0.00 0.00 98 1008.8
20260831153506 52 341 3.0 4.0 0.00 0.00 0.00 98 1008.6
20260831152953 52 32 2.0 4.0 0.00 0.00 0.00 98 1008.7
20260831152427 52 31 2.0 4.0 0.00 0.00 0.00 98 1008.7
20260831151912 52 3 2.0 4.0 0.00 0.00 0.00 98 1008.9
20260831151410 52 14 2.0 4.0 0.00 0.00 0.00 98 1008.7
20260831150854 52 14 3.0 4.0 0.00 0.00 0.00 98 1008.9
20260831150351 53 0 2.0 3.0 0.00 0.00 0.00 98 1008.9
20260831145847 52 19 1.0 3.0 0.00 0.00 0.00 98 1008.9
20260831145342 53 25 2.0 4.0 0.00 0.00 0.00 98 1009.0
20260831144838 53 8 2.0 4.0 0.00 0.00 0.00 97 1009.0
20260831144553 53 19 2.0 4.0 0.00 0.00 0.00 98 1009.1
20260831143820 53 4 0.0 4.0 0.00 0.00 0.00 97 1009.3
20260831143315 52 23 2.0 4.0 0.00 0.00 0.00 97 1009.4
20260831142810 53 9 3.0 4.0 0.00 0.00 0.00 97 1009.2
20260831142257 52 58 1.0 4.0 0.00 0.00 0.00 97 1009.2
20260831141753 52 23 1.0 4.0 0.00 0.00 0.00 97 1009.4
20260831141249 52 0 1.0 4.0 0.00 0.00 0.00 97 1009.2
20260831140740 53 7 3.0 4.0 0.00 0.00 0.00 97 1009.2
20260831140240 53 1 2.0 4.0 0.00 0.00 0.00 97 1009.3
20260831135953 53 14 4.0 4.0 0.00 0.00 0.00 97 1009.4
20260831135210 53 2 2.0 4.0 0.00 0.00 0.00 97 1009.4
20260831134708 53 14 3.0 4.0 0.00 0.00 0.00 97 1009.5
20260831134154 53 342 2.0 4.0 0.00 0.00 0.00 97 1009.5
20260831133639 53 356 2.0 4.0 0.00 0.00 0.00 97 1009.5
20260831133115 53 353 2.0 4.0 0.00 0.00 0.00 97 1009.6
20260831132610 53 7 0.0 4.0 0.00 0.00 0.00 97 1009.5
20260831132106 53 356 3.0 4.0 0.00 0.00 0.00 97 1009.6
20260831131820 53 356 2.0 4.0 0.00 0.00 0.00 96 1009.5
20260831131058 54 8 2.0 4.0 0.00 0.00 0.00 96 1009.5
20260831130553 54 1 2.0 4.0 0.00 0.00 0.00 96 1009.4
20260831130050 54 1 2.0 4.0 0.00 0.00 0.00 96 1009.5
20260831125753 54 10 1.0 4.0 0.00 0.00 0.00 96 1009.6
20260831125010 54 12 2.0 4.0 0.00 0.00 0.00 96 1009.6
20260831124446 54 352 2.0 4.0 0.00 0.00 0.00 96 1009.8
20260831123941 54 356 3.0 4.0 0.00 0.00 0.00 96 1009.8
20260831123437 54 4 2.0 4.0 0.00 0.00 0.00 96 1009.7
20260831122926 54 334 1.0 4.0 0.00 0.00 0.00 96 1009.9
20260831122409 54 353 1.0 4.0 0.00 0.00 0.00 96 1009.7
20260831121905 54 352 3.0 4.0 0.00 0.00 0.00 96 1010.0
20260831121400 54 359 2.0 3.0 0.00 0.00 0.00 95 1009.8
20260831120856 54 9 2.0 3.0 0.00 0.00 0.00 95 1010.0
20260831120611 54 3 2.0 3.0 0.00 0.00 0.00 95 1009.8
20260831120107 54 52 0.0 3.0 0.00 0.00 0.00 95 1009.7
20260831115337 54 11 2.0 3.0 0.00 0.00 0.00 95 1009.9
20260831114828 55 24 2.0 3.0 0.00 0.00 0.00 95 1009.8
20260831114314 55 354 2.0 4.0 0.00 0.00 0.00 95 1009.9
20260831113806 55 9 2.0 4.0 0.00 0.00 0.00 95 1009.9
20260831113305 55 349 3.0 4.0 0.00 0.00 0.00 94 1009.8
20260831112806 55 359 2.0 4.0 0.00 0.00 0.00 94 1009.7
20260831112318 55 0 3.0 4.0 0.00 0.00 0.00 94 1009.9
20260831112029 55 352 3.0 4.0 0.00 0.00 0.00 94 1009.7
20260831111248 55 346 2.0 4.0 0.00 0.00 0.00 94 1009.6
20260831110725 56 350 2.0 4.0 0.00 0.00 0.00 94 1009.7
20260831110435 56 1 1.0 4.0 0.00 0.00 0.00 94 1009.5
20260831105656 56 342 3.0 4.0 0.00 0.00 0.00 94 1009.8
20260831105151 56 342 2.0 4.0 0.00 0.00 0.00 93 1009.5
20260831104647 56 348 1.0 4.0 0.00 0.00 0.00 93 1009.8
20260831104122 56 340 2.0 4.0 0.00 0.00 0.00 93 1009.6
20260831103632 56 338 1.0 4.0 0.00 0.00 0.00 92 1009.6
20260831103115 56 318 2.0 4.0 0.00 0.00 0.00 92 1009.7
20260831102611 56 323 1.0 4.0 0.00 0.00 0.00 92 1009.6
20260831102104 57 344 2.0 4.0 0.00 0.00 0.00 92 1009.6
20260831101542 56 332 1.0 4.0 0.00 0.00 0.00 91 1009.7
20260831101038 57 0 2.0 4.0 0.00 0.00 0.00 91 1009.5
20260831100534 57 347 2.0 4.0 0.00 0.00 0.00 91 1009.4
20260831100459 57 356 0.0 4.0 0.00 0.00 0.00 90 1009.6
20260831095515 57 2 2.0 4.0 0.00 0.00 0.00 90 1009.6
20260831095010 57 5 2.0 4.0 0.00 0.00 0.00 89 1009.5
20260831094506 58 9 2.0 4.0 0.00 0.00 0.00 89 1009.4
20260831094002 58 357 2.0 4.0 0.00 0.00 0.00 89 1009.4
20260831093905 58 331 3.0 4.0 0.00 0.00 0.00 88 1009.4
20260831092439 59 355 2.0 4.0 0.00 0.00 0.00 86 1009.4
20260831091915 59 343 3.0 4.0 0.00 0.00 0.00 85 1009.4
20260831091635 59 0 2.0 4.0 0.00 0.00 0.00 84 1009.3
20260831090907 59 355 2.0 3.0 0.00 0.00 0.00 83 1009.3
20260831090353 60 14 2.0 3.0 0.00 0.00 0.00 82 1009.2
20260831085848 60 5 1.0 4.0 0.00 0.00 0.00 82 1009.1
20260831085344 60 9 2.0 4.0 0.00 0.00 0.00 81 1009.0
20260831084832 60 339 1.0 4.0 0.00 0.00 0.00 82 1009.1
20260831084325 60 12 2.0 4.0 0.00 0.00 0.00 82 1009.1
20260831083811 60 335 0.0 3.0 0.00 0.00 0.00 82 1008.8
20260831083302 60 21 3.0 3.0 0.00 0.00 0.00 83 1009.0
20260831082801 60 170 1.0 3.0 0.00 0.00 0.00 83 1008.9
20260831082301 60 53 2.0 3.0 0.00 0.00 0.00 83 1008.9
20260831081754 60 352 1.0 3.0 0.00 0.00 0.00 84 1008.9
20260831081250 60 346 1.0 3.0 0.00 0.00 0.00 83 1008.8
20260831080731 60 17 1.0 4.0 0.00 0.00 0.00 83 1008.6
20260831080213 61 22 1.0 4.0 0.00 0.00 0.00 82 1008.6
20260831075922 61 23 1.0 2.0 0.00 0.00 0.00 81 1008.5
20260831075201 61 28 2.0 3.0 0.00 0.00 0.00 81 1008.4
20260831074659 62 343 2.0 3.0 0.00 0.00 0.00 80 1008.6
20260831074155 62 339 2.0 3.0 0.00 0.00 0.00 79 1008.4
20260831073629 62 241 1.0 3.0 0.00 0.00 0.00 79 1008.3
20260831073126 63 10 1.0 3.0 0.00 0.00 0.00 78 1008.3
20260831072611 63 20 0.0 3.0 0.00 0.00 0.00 77 1008.3
20260831072550 64 4 1.0 3.0 0.00 0.00 0.00 76 1008.2
20260831071559 64 0 1.0 4.0 0.00 0.00 0.00 76 1008.3
20260831071100 64 20 2.0 4.0 0.00 0.00 0.00 75 1007.9
20260831070558 64 7 2.0 4.0 0.00 0.00 0.00 75 1007.9
20260831070104 65 60 2.0 3.0 0.00 0.00 0.00 74 1008.1
20260831065515 65 348 1.0 4.0 0.00 0.00 0.00 74 1008.0
20260831065012 65 82 1.0 4.0 0.00 0.00 0.00 75 1007.9
20260831064718 65 358 1.0 3.0 0.00 0.00 0.00 75 1008.0
20260831063959 65 17 2.0 4.0 0.00 0.00 0.00 75 1008.0
20260831063447 65 25 1.0 4.0 0.00 0.00 0.00 74 1008.0
20260831062945 66 15 1.0 4.0 0.00 0.00 0.00 75 1007.7
20260831062440 66 359 1.0 4.0 0.00 0.00 0.00 74 1007.9
20260831062146 66 116 2.0 4.0 0.00 0.00 0.00 73 1007.7
20260831061427 66 58 2.0 3.0 0.00 0.00 0.00 73 1007.8
20260831061205 66 35 1.0 4.0 0.00 0.00 0.00 72 1007.7
20260831060412 66 35 2.0 4.0 0.00 0.00 0.00 71 1007.7
20260831060342 67 66 2.0 3.0 0.00 0.00 0.00 71 1007.8
20260831055357 67 30 2.0 3.0 0.00 0.00 0.00 72 1007.6
20260831054857 67 8 2.0 4.0 0.00 0.00 0.00 73 1007.7
20260831054408 67 12 2.0 4.0 0.00 0.00 0.00 72 1008.0
20260831053851 67 36 1.0 4.0 0.00 0.00 0.00 72 1007.8
20260831053347 67 40 2.0 5.0 0.00 0.00 0.00 70 1007.9
20260831052844 67 55 1.0 6.0 0.00 0.00 0.00 69 1007.7
20260831052558 68 20 4.0 6.0 0.00 0.00 0.00 69 1007.8
20260831051835 68 17 2.0 5.0 0.00 0.00 0.00 68 1007.9
20260831051342 68 18 0.0 4.0 0.00 0.00 0.00 68 1007.9
20260831050825 68 41 2.0 4.0 0.00 0.00 0.00 68 1007.7
20260831050322 68 38 1.0 6.0 0.00 0.00 0.00 66 1008.0
20260831045818 68 132 2.0 6.0 0.00 0.00 0.00 68 1008.0
20260831045314 68 31 2.0 4.0 0.00 0.00 0.00 67 1007.7
20260831045248 69 340 1.0 4.0 0.00 0.00 0.00 65 1007.9
20260831044255 69 322 2.0 8.0 0.00 0.00 0.00 65 1007.8
20260831044007 70 339 2.0 8.0 0.00 0.00 0.00 65 1007.7
20260831043216 70 3 1.0 4.0 0.00 0.00 0.00 64 1007.9
20260831042713 70 67 3.0 3.0 0.00 0.00 0.00 65 1007.8
20260831042208 70 356 2.0 3.0 0.00 0.00 0.00 63 1007.7
20260831041645 70 15 2.0 4.0 0.00 0.00 0.00 64 1007.9
20260831041142 71 79 0.0 4.0 0.00 0.00 0.00 62 1007.8
20260831040615 72 33 1.0 6.0 0.00 0.00 0.00 60 1007.8
20260831040112 71 4 3.0 6.0 0.00 0.00 0.00 59 1007.8
20260831035606 71 29 2.0 5.0 0.00 0.00 0.00 61 1007.8
20260831035103 71 17 2.0 4.0 0.00 0.00 0.00 61 1007.8
20260831034559 70 12 2.0 4.0 0.00 0.00 0.00 63 1007.8
20260831034054 70 16 2.0 4.0 0.00 0.00 0.00 61 1007.9
20260831033539 72 15 3.0 4.0 0.00 0.00 0.00 59 1007.9
20260831033036 72 28 2.0 6.0 0.00 0.00 0.00 59 1007.8
20260831032532 71 0 2.0 6.0 0.00 0.00 0.00 62 1007.9
20260831032028 70 25 3.0 4.0 0.00 0.00 0.00 65 1007.8
20260831031526 69 25 1.0 4.0 0.00 0.00 0.00 65 1008.0
20260831031009 70 9 0.0 4.0 0.00 0.00 0.00 63 1007.8
20260831030505 69 20 1.0 4.0 0.00 0.00 0.00 64 1008.0
20260831025941 71 54 0.0 4.0 0.00 0.00 0.00 63 1007.9
20260831025436 71 3 4.0 4.0 0.00 0.00 0.00 63 1008.1
20260831024932 72 11 2.0 4.0 0.00 0.00 0.00 62 1008.1
20260831024428 73 347 2.0 4.0 0.00 0.00 0.00 61 1008.1
20260831023924 72 346 2.0 4.0 0.00 0.00 0.00 63 1008.1
20260831023420 71 352 1.0 5.0 0.00 0.00 0.00 64 1008.2
20260831023135 73 19 3.0 5.0 0.00 0.00 0.00 63 1008.5
20260831022412 73 352 2.0 4.0 0.00 0.00 0.00 62 1008.3
20260831021908 71 15 3.0 5.0 0.00 0.00 0.00 64 1008.4
20260831021351 70 1 2.0 5.0 0.00 0.00 0.00 68 1008.5
20260831020839 69 15 2.0 4.0 0.00 0.00 0.00 68 1008.6
20260831020335 69 348 0.0 5.0 0.00 0.00 0.00 68 1008.5
20260831015831 70 20 2.0 5.0 0.00 0.00 0.00 67 1008.7
20260831015320 70 17 2.0 4.0 0.00 0.00 0.00 67 1008.7
20260831014820 69 348 2.0 4.0 0.00 0.00 0.00 67 1008.9
20260831014320 68 28 1.0 4.0 0.00 0.00 0.00 68 1009.0
20260831013815 69 27 2.0 4.0 0.00 0.00 0.00 67 1008.9
20260831013311 68 2 3.0 4.0 0.00 0.00 0.00 67 1008.9
20260831012806 69 1 3.0 4.0 0.00 0.00 0.00 67 1008.8
20260831012305 69 7 2.0 5.0 0.00 0.00 0.00 68 1009.1
20260831011748 71 344 2.0 5.0 0.00 0.00 0.00 66 1009.2
20260831011244 71 18 2.0 6.0 0.00 0.00 0.00 65 1009.2
20260831010740 71 0 0.0 6.0 0.00 0.00 0.00 65 1009.2
20260831010235 71 343 5.0 6.0 0.00 0.00 0.00 64 1009.3
20260831005721 70 12 3.0 5.0 0.00 0.00 0.00 66 1009.4
20260831005217 70 18 3.0 5.0 0.00 0.00 0.00 64 1009.3
20260831004934 69 12 2.0 5.0 0.00 0.00 0.00 65 1009.5
20260831004208 70 23 2.0 5.0 0.00 0.00 0.00 67 1009.6
20260831003654 69 18 2.0 5.0 0.00 0.00 0.00 66 1009.5
20260831003148 69 22 2.0 5.0 0.00 0.00 0.00 66 1009.6
20260831002648 68 354 1.0 4.0 0.00 0.00 0.00 67 1009.7
20260831002409 68 84 2.0 4.0 0.00 0.00 0.00 67 1009.7
20260831001648 68 3 2.0 4.0 0.00 0.00 0.00 67 1009.8
20260831001143 68 19 2.0 4.0 0.00 0.00 0.00 66 1009.8
20260831000640 66 5 0.0 5.0 0.00 0.00 0.00 68 1009.9
20260831000136 67 0 2.0 5.0 0.00 0.00 0.00 68 1009.9
20260830235632 67 168 4.0 5.0 0.00 0.00 0.00 68 1009.8
20260830235128 67 167 4.0 5.0 0.00 0.00 0.00 67 1009.9
20260830234614 66 170 3.0 6.0 0.00 0.00 0.00 69 1010.2